{"data":{"norad_id":63799,"epoch":"2026-09-20T02:06:38.128320Z","epoch_age_seconds":185437,"freshness":"STALE","line1":"1 63799U 25091AA  26263.08794130  .00010411  00000+0  38720-3 0  9991","line2":"2 63799  43.0030  34.5975 0002100 267.9533  92.1078 15.27590346 78742","mean_motion":15.27590346,"eccentricity":0.00021,"inclination_deg":43.003,"raan_deg":34.5975,"arg_perigee_deg":267.9533,"mean_anomaly_deg":92.1078,"bstar":0.0003872,"rev_number":7874,"period_min":94.266110267759,"perigee_km":481.57727399407,"apogee_km":484.45895914303,"semimajor_km":6861.1551165685,"source":"CELESTRAK","updated_at":"2026-09-21T09:00:35.102761Z"}}